Flag for Mexico Weather past 2 weeks in Matamoros, Tamaulipas, Mexico

Now
70 °F

Clear.


Feels Like: 68 °F
Forecast: 67 / 80 °F
Wind: 12 mph from Southeast

Location: Brownsville / South Padre Island International Airport


UV Index: 7 (High)

Visibility: 10 mi


Pressure: 30.05 "Hg

Humidity: 87%

Dew point: 66 °F

Location of MatamorosLocation

Historic Weather in Matamoros

°F

Matamoros temperature yesterday

Maximum temperature yesterday: 79 °F (at 12:53 PM)
Minimum temperature yesterday: 61 °F (at 4:53 AM)
Average temperature yesterday: 70 °F

Past Weeks' High & Low Weather Summary

 TemperatureHumidityPressure
High87 °F (Apr 14, 2:53 PM)100% (Apr 5, 8:53 PM)30.35 "Hg (Apr 5, 8:53 PM)
Low47 °F (Apr 16, 5:53 AM)15% (Apr 8, 3:53 PM)29.58 "Hg (Apr 6, 4:53 PM)
Average70 °F77%29.98 "Hg
* Reported Apr 5 1:53 AM — Apr 20 1:53 AM, Matamoros, Weather by CustomWeather, © 2014

Note: Actual official high and low records may vary slightly from our data, if they occured in-between our weather recording intervals... More about our weather records

Advertising

Historic Weather Conditions — Data for Previous 24 hours

 ConditionsComfort  
Time TempWeatherWind HumidityBarometerVisibility
1:53 AM
Apr 20
70 °FClear.12 mph87%30.05 "Hg10 mi
12:53 AM70 °FClear.10 mph87%30.07 "Hg10 mi
11:53 PM
Apr 19
71 °FClear.10 mph84%30.08 "Hg10 mi
10:53 PM71 °FClear.9 mph84%30.09 "Hg10 mi
9:53 PM71 °FClear.7 mph84%30.09 "Hg10 mi
8:53 PM71 °FSunny.9 mph81%30.07 "Hg10 mi
7:53 PM72 °FSunny.9 mph78%30.06 "Hg10 mi
6:53 PM75 °FOvercast.16 mph69%30.06 "Hg10 mi
5:53 PM76 °FOvercast.13 mph64%30.05 "Hg10 mi
4:53 PM78 °FPartly sunny.15 mph60%30.05 "Hg10 mi
3:53 PM78 °FOvercast.14 mph62%30.07 "Hg10 mi
2:53 PM79 °FPartly sunny.16 mph60%30.09 "Hg10 mi
2:00 PM79 °FPartly sunny.13 mph61%30.10 "Hg10 mi
12:53 PM79 °FScattered clouds.14 mph62%30.11 "Hg10 mi
11:53 AM76 °FOvercast.10 mph69%30.12 "Hg10 mi
10:53 AM75 °FOvercast.10 mph71%30.14 "Hg10 mi
9:53 AM74 °FScattered clouds.10 mph74%30.13 "Hg10 mi
8:53 AM69 °FSunny.8 mph90%30.11 "Hg10 mi
7:53 AM64 °FClear.No wind97%30.10 "Hg8 mi
6:53 AM61 °FClear.3 mph100%30.08 "Hg9 mi
5:53 AM61 °FClear.3 mph100%30.08 "Hg9 mi
4:53 AM61 °FClear.No wind97%30.07 "Hg9 mi
3:53 AM62 °FClear.No wind96%30.07 "Hg10 mi
Weather by CustomWeather, © 2014

See weather overview